Weather History for Midland Airpark, TX

Change the Weather History Date:

Friday, November 23, 2012

  Actual Average (KMAF) Record (KMAF)
Temperature  
Mean Temperature 50 °F 50 °F  
Max Temperature 60 °F 64 °F 84 °F (1965)
Min Temperature 41 °F 36 °F 17 °F (1938)
Degree Days  
Heating Degree Days 14 15  
Month to date heating degree days 253  
Since 1 July heating degree days 362  
Moisture  
Dew Point 22 °F    
Average Humidity 31    
Maximum Humidity 43    
Minimum Humidity 17    
Precipitation  
Precipitation 0.00 in 0.02 in 0.43 in (2013)
Month to date precipitation 0.54  
Year to date precipitation 13.85  
Snow  
Snow 0.00 in - - ()
Month to date snowfall  
Since 1 July snowfall  
Since 1 September snowfall  
Snow Depth -    
Sea Level Pressure  
Sea Level Pressure 30.42 in    
Wind  
Wind Speed 12 mph (NE)    
Max Wind Speed 23 mph    
Max Gust Speed 34 mph    
Visibility 10 miles    
Events      
T = Trace of Precipitation, MM = Missing Value Source: NWS Daily Summary

Daily Weather History Graph

Daily Weather History Graph

Search for Another Location

Airport:

Trip Planner

Search our weather history database for the weather conditions in past years. The results will help you decide how hot, cold, wet, or windy it might be!

Date:

Astronomy

Nov. 23, 2012 Rise Set
Actual Time 7:24 AM CST 5:45 PM CST
Civil Twilight 6:58 AM CST 6:11 PM CST
Nautical Twilight 6:28 AM CST 6:41 PM CST
Astronomical Twilight 5:59 AM CST 7:10 PM CST
Moon 2:48 PM CST (11/23) 2:59 AM CST (11/23)
Length of Visible Light 11h 12m
Length of Day
10h 20m
Waxing Gibbous, 80% of the Moon is Illuminated
Nov 23
Waxing Gibbous
Nov 28
Full
Dec 6
Last Quarter
Dec 13
New
Dec 19
First Quarter

Hourly Weather History & Observations

Time (CST) Temp. Dew Point Humidity Pressure Visibility Wind Dir Wind Speed Gust Speed Precip Events Conditions
12:15 AM 57.2 °F 29.7 °F 35% 30.21 in 10.0 mi NE 9.2 mph - N/A   Clear
12:35 AM 56.5 °F 29.5 °F 36% 30.22 in 10.0 mi NE 10.4 mph - N/A   Clear
12:55 AM 56.7 °F 29.3 °F 35% 30.23 in 10.0 mi NNE 9.2 mph - N/A   Clear
1:15 AM 56.7 °F 29.1 °F 35% 30.24 in 10.0 mi NE 11.5 mph - N/A   Clear
1:35 AM 56.1 °F 29.5 °F 36% 30.25 in 10.0 mi NE 10.4 mph - N/A   Clear
1:55 AM 55.6 °F 30.0 °F 38% 30.26 in 10.0 mi NE 10.4 mph - N/A   Clear
2:15 AM 55.6 °F 30.4 °F 38% 30.27 in 10.0 mi NE 11.5 mph - N/A   Clear
2:35 AM 55.2 °F 30.7 °F 39% 30.28 in 10.0 mi NE 13.8 mph 19.6 mph N/A   Clear
2:55 AM 54.5 °F 31.1 °F 41% 30.29 in 10.0 mi NE 12.7 mph - N/A   Clear
3:15 AM 54.1 °F 31.5 °F 42% 30.30 in 10.0 mi NE 12.7 mph - N/A   Clear
3:35 AM 54.0 °F 31.6 °F 43% 30.32 in 10.0 mi NNE 13.8 mph - N/A   Clear
3:55 AM 53.2 °F 31.3 °F 43% 30.33 in 10.0 mi NNE 12.7 mph 20.7 mph N/A   Clear
4:15 AM 52.7 °F 29.8 °F 42% 30.33 in 10.0 mi NNE 11.5 mph - N/A   Clear
4:35 AM 52.2 °F 28.4 °F 40% 30.34 in 10.0 mi NNE 13.8 mph - N/A   Clear
4:55 AM 51.4 °F 26.8 °F 38% 30.35 in 10.0 mi NNE 12.7 mph - N/A   Clear
5:15 AM 51.1 °F 25.5 °F 37% 30.36 in 10.0 mi NNE 13.8 mph - N/A   Clear
5:35 AM 50.5 °F 24.4 °F 36% 30.36 in 10.0 mi NNE 16.1 mph 23.0 mph N/A   Clear
5:55 AM 50.4 °F 23.9 °F 36% 30.37 in 10.0 mi NNE 16.1 mph - N/A   Clear
6:15 AM 49.8 °F 23.9 °F 36% 30.38 in 10.0 mi NNE 15.0 mph 20.7 mph N/A   Clear
6:35 AM 49.3 °F 23.7 °F 37% 30.38 in 10.0 mi NNE 13.8 mph 19.6 mph N/A   Clear
6:55 AM 48.7 °F 23.5 °F 37% 30.39 in 10.0 mi NNE 13.8 mph - N/A   Clear
7:15 AM 48.4 °F 23.4 °F 37% 30.40 in 10.0 mi NNE 15.0 mph 21.9 mph N/A   Clear
7:35 AM 48.2 °F 23.4 °F 38% 30.41 in 10.0 mi NNE 16.1 mph 23.0 mph N/A   Clear
7:55 AM 48.2 °F 23.5 °F 38% 30.43 in 10.0 mi NNE 18.4 mph 25.3 mph N/A   Clear
8:15 AM 48.4 °F 23.9 °F 38% 30.44 in 10.0 mi NE 17.3 mph 26.5 mph N/A   Clear
8:35 AM 49.1 °F 23.7 °F 37% 30.45 in 7.0 mi NNE 19.6 mph 34.5 mph N/A   Scattered Clouds
8:55 AM 50.2 °F 23.0 °F 35% 30.47 in 7.0 mi NE 23.0 mph 32.2 mph N/A   Scattered Clouds
9:15 AM 50.9 °F 22.5 °F 33% 30.48 in 7.0 mi NE 20.7 mph 34.5 mph N/A   Scattered Clouds
9:35 AM 51.8 °F 22.1 °F 31% 30.51 in 7.0 mi NE 21.9 mph 29.9 mph N/A   Scattered Clouds
9:55 AM 52.3 °F 21.6 °F 30% 30.51 in 7.0 mi NE 20.7 mph 29.9 mph N/A   Mostly Cloudy
10:15 AM 53.2 °F 21.4 °F 29% 30.52 in 7.0 mi NE 23.0 mph 31.1 mph N/A   Scattered Clouds
10:35 AM 53.6 °F 21.6 °F 29% 30.52 in 10.0 mi NE 23.0 mph 31.1 mph N/A   Clear
10:55 AM 54.5 °F 21.4 °F 28% 30.52 in 10.0 mi NE 19.6 mph 25.3 mph N/A   Scattered Clouds
11:15 AM 55.2 °F 21.6 °F 27% 30.52 in 10.0 mi NNE 17.3 mph 26.5 mph N/A   Clear
11:35 AM 56.3 °F 21.6 °F 26% 30.51 in 10.0 mi ENE 17.3 mph 25.3 mph N/A   Clear
12:15 PM 57.6 °F 20.3 °F 24% 30.50 in 10.0 mi NE 15.0 mph 23.0 mph N/A   Clear
12:35 PM 58.5 °F 19.6 °F 22% 30.49 in 10.0 mi NE 17.3 mph 26.5 mph N/A   Clear
12:55 PM 59.2 °F 18.1 °F 20% 30.48 in 10.0 mi NE 20.7 mph 26.5 mph N/A   Clear
1:15 PM 59.5 °F 17.2 °F 19% 30.48 in 10.0 mi NE 20.7 mph 26.5 mph N/A   Clear
1:35 PM 59.7 °F 17.2 °F 19% 30.47 in 10.0 mi NE 17.3 mph 24.2 mph N/A   Clear
1:55 PM 60.1 °F 18.0 °F 20% 30.47 in 10.0 mi NE 16.1 mph 25.3 mph N/A   Clear
2:15 PM 60.3 °F 18.0 °F 19% 30.46 in 10.0 mi NE 18.4 mph 21.9 mph N/A   Clear
2:35 PM 60.3 °F 15.8 °F 18% 30.46 in 10.0 mi ENE 17.3 mph 25.3 mph N/A   Clear
2:55 PM 60.4 °F 15.6 °F 17% 30.46 in 10.0 mi NE 12.7 mph 18.4 mph N/A   Clear
3:15 PM 60.3 °F 16.3 °F 18% 30.45 in 10.0 mi NE 18.4 mph - N/A   Clear
3:35 PM 60.1 °F 16.2 °F 18% 30.45 in 10.0 mi NE 16.1 mph 19.6 mph N/A   Clear
3:55 PM 59.9 °F 16.2 °F 18% 30.44 in 10.0 mi ENE 13.8 mph - N/A   Clear
4:15 PM 59.9 °F 15.8 °F 18% 30.44 in 10.0 mi NE 13.8 mph 18.4 mph N/A   Clear
4:35 PM 59.4 °F 16.2 °F 19% 30.44 in 10.0 mi ENE 13.8 mph - N/A   Clear
4:55 PM 58.8 °F 16.0 °F 19% 30.44 in 10.0 mi ENE 12.7 mph - N/A   Clear
5:15 PM 57.9 °F 16.3 °F 20% 30.44 in 10.0 mi ENE 11.5 mph - N/A   Clear
5:35 PM 56.8 °F 16.7 °F 21% 30.45 in 10.0 mi ENE 11.5 mph - N/A   Clear
5:55 PM 55.6 °F 16.9 °F 22% 30.45 in 10.0 mi ENE 8.1 mph - N/A   Clear
6:15 PM 53.6 °F 17.4 °F 24% 30.45 in 10.0 mi ENE 6.9 mph - N/A   Clear
6:35 PM 52.2 °F 17.6 °F 26% 30.45 in 10.0 mi ENE 5.8 mph - N/A   Clear
6:55 PM 49.8 °F 18.3 °F 29% 30.46 in 10.0 mi NE 5.8 mph - N/A   Clear
7:15 PM 48.6 °F 18.3 °F 30% 30.46 in 10.0 mi NE 4.6 mph - N/A   Clear
7:35 PM 48.2 °F 18.3 °F 31% 30.46 in 10.0 mi ENE 3.5 mph - N/A   Clear
7:55 PM 47.8 °F 18.1 °F 31% 30.47 in 10.0 mi NE 3.5 mph - N/A   Clear
8:15 PM 47.1 °F 18.0 °F 31% 30.47 in 10.0 mi ENE 3.5 mph - N/A   Clear
8:35 PM 46.8 °F 18.1 °F 32% 30.47 in 10.0 mi Calm Calm - N/A   Clear
8:55 PM 47.3 °F 18.3 °F 32% 30.47 in 7.0 mi ENE 3.5 mph - N/A   Clear
9:15 PM 46.8 °F 18.3 °F 32% 30.47 in 7.0 mi NNE 3.5 mph - N/A   Clear
9:35 PM 45.9 °F 19.4 °F 35% 30.48 in 10.0 mi Calm Calm - N/A   Clear
9:55 PM 44.8 °F 20.1 °F 37% 30.48 in 10.0 mi Calm Calm - N/A   Clear
10:15 PM 43.3 °F 19.8 °F 39% 30.48 in 10.0 mi Calm Calm - N/A   Clear
10:35 PM 41.9 °F 19.6 °F 41% 30.47 in 10.0 mi Calm Calm - N/A   Clear
10:55 PM 42.1 °F 19.4 °F 40% 30.47 in 10.0 mi Calm Calm - N/A   Clear
11:15 PM 41.7 °F 19.4 °F 41% 30.47 in 10.0 mi Calm Calm - N/A   Clear
11:35 PM 41.5 °F 19.2 °F 41% 30.46 in 10.0 mi Calm Calm - N/A   Clear
11:55 PM 41.5 °F 19.4 °F 41% 30.46 in 10.0 mi Calm Calm - N/A   Clear